| time (UTC) | temp F | wind direction | speed MPH | gust MPH | rain 1hr in | rain 24hr in | rain mn in | humidity % | barometer mb |
| 20260903211538 | 0 | 0.0 | 0.0 | 0.00 | 0.00 | 0.00 | 1023.5 | ||
| 20260903210038 | 0 | 0.0 | 0.0 | 0.00 | 0.00 | 0.00 | 1023.8 | ||
| 20260903204534 | 0 | 0.0 | 0.0 | 0.00 | 0.01 | 0.00 | 1023.9 | ||
| 20260903203035 | 0 | 0.0 | 0.0 | 0.00 | 0.01 | 0.00 | 1024.1 | ||
| 20260903201535 | 0 | 0.0 | 0.0 | 0.00 | 0.01 | 0.00 | 1024.3 | ||
| 20260903200045 | 0 | 0.0 | 0.0 | 0.00 | 0.01 | 0.00 | 1024.3 | ||
| 20260903194544 | 76 | 11.0 | 19.0 | 0.00 | 0.01 | 0.00 | 29 | 1024.4 | |
| 20260903193038 | 75 | 185 | 14.0 | 23.0 | 0.00 | 0.01 | 0.00 | 29 | 1024.6 |
| 20260903191550 | 75 | 196 | 10.0 | 25.0 | 0.00 | 0.01 | 0.00 | 30 | 1024.9 |
| 20260903190038 | 74 | 190 | 13.0 | 26.0 | 0.00 | 0.01 | 0.00 | 30 | 1024.7 |
| 20260903184540 | 74 | 202 | 12.0 | 26.0 | 0.00 | 0.01 | 0.00 | 31 | 1025.0 |
| 20260903183059 | 74 | 175 | 13.0 | 24.0 | 0.00 | 0.01 | 0.00 | 31 | 1025.2 |
| 20260903181535 | 72 | 189 | 15.0 | 25.0 | 0.00 | 0.01 | 0.00 | 32 | 1025.4 |
| 20260903180037 | 72 | 220 | 12.0 | 25.0 | 0.00 | 0.01 | 0.00 | 33 | 1025.6 |
| 20260903174536 | 72 | 167 | 13.0 | 25.0 | 0.00 | 0.01 | 0.00 | 34 | 1025.8 |
| 20260903173037 | 0 | 0.0 | 0.0 | 0.00 | 0.01 | 0.00 | 1025.7 | ||
| 20260903171537 | 0 | 0.0 | 0.0 | 0.00 | 0.01 | 0.00 | 1025.6 | ||
| 20260903170037 | 0 | 0.0 | 0.0 | 0.00 | 0.01 | 0.00 | 1025.9 | ||
| 20260903164538 | 0 | 0.0 | 0.0 | 0.00 | 0.01 | 0.00 | 1026.0 | ||
| 20260903163034 | 0 | 0.0 | 0.0 | 0.00 | 0.01 | 0.00 | 1025.8 | ||
| 20260903161556 | 0 | 0.0 | 0.0 | 0.00 | 0.01 | 0.00 | 1025.7 | ||
| 20260903160036 | 0 | 0.0 | 0.0 | 0.00 | 0.01 | 0.00 | 1025.8 | ||
| 20260903154534 | 0 | 0.0 | 0.0 | 0.00 | 0.01 | 0.00 | 1025.8 | ||
| 20260903153036 | 0 | 0.0 | 0.0 | 0.00 | 0.01 | 0.00 | 1025.9 | ||
| 20260903151541 | 0 | 0.0 | 0.0 | 0.00 | 0.01 | 0.00 | 1025.9 | ||
| 20260903150039 | 0 | 0.0 | 0.0 | 0.00 | 0.01 | 0.00 | 1025.9 | ||
| 20260903144537 | 65 | 6.0 | 10.0 | 0.00 | 0.01 | 0.00 | 53 | 1025.9 | |
| 20260903143041 | 64 | 178 | 4.0 | 9.0 | 0.00 | 0.01 | 0.00 | 55 | 1026.0 |
| 20260903141538 | 62 | 215 | 5.0 | 8.0 | 0.00 | 0.01 | 0.00 | 57 | 1025.9 |
| 20260903140040 | 59 | 178 | 2.0 | 10.0 | 0.00 | 0.01 | 0.00 | 63 | 1025.8 |
| 20260903134543 | 56 | 182 | 3.0 | 5.0 | 0.00 | 0.01 | 0.00 | 67 | 1025.7 |
| 20260903133047 | 55 | 189 | 1.0 | 4.0 | 0.00 | 0.01 | 0.00 | 65 | 1025.5 |
| 20260903131540 | 56 | 259 | 1.0 | 4.0 | 0.00 | 0.01 | 0.00 | 65 | 1025.3 |
| 20260903130036 | 56 | 180 | 2.0 | 7.0 | 0.00 | 0.01 | 0.00 | 64 | 1025.0 |
| 20260903124553 | 56 | 171 | 4.0 | 9.0 | 0.00 | 0.01 | 0.00 | 64 | 1024.9 |
| 20260903123039 | 56 | 147 | 3.0 | 8.0 | 0.00 | 0.01 | 0.00 | 65 | 1024.7 |
| 20260903121545 | 55 | 144 | 3.0 | 7.0 | 0.00 | 0.01 | 0.00 | 65 | 1024.5 |
| 20260903120037 | 55 | 134 | 3.0 | 5.0 | 0.00 | 0.01 | 0.00 | 65 | 1024.5 |
| 20260903114535 | 55 | 136 | 4.0 | 9.0 | 0.00 | 0.01 | 0.00 | 65 | 1024.4 |
| 20260903113036 | 55 | 153 | 5.0 | 9.0 | 0.00 | 0.01 | 0.00 | 65 | 1024.3 |
| 20260903111535 | 55 | 130 | 5.0 | 10.0 | 0.00 | 0.01 | 0.00 | 65 | 1024.5 |
| 20260903110035 | 55 | 113 | 6.0 | 9.0 | 0.00 | 0.01 | 0.00 | 65 | 1024.4 |
| 20260903104538 | 54 | 138 | 5.0 | 10.0 | 0.00 | 0.01 | 0.00 | 66 | 1024.4 |
| 20260903103035 | 53 | 148 | 6.0 | 13.0 | 0.00 | 0.01 | 0.00 | 71 | 1024.4 |
| 20260903101538 | 51 | 0 | 0.0 | 5.0 | 0.00 | 0.01 | 0.00 | 71 | 1024.4 |
| 20260903100036 | 51 | 192 | 2.0 | 5.0 | 0.00 | 0.01 | 0.00 | 72 | 1024.4 |
| 20260903094534 | 51 | 179 | 0.0 | 4.0 | 0.00 | 0.01 | 0.00 | 72 | 1024.4 |
| 20260903093038 | 52 | 267 | 1.0 | 5.0 | 0.00 | 0.01 | 0.00 | 72 | 1024.3 |
| 20260903091552 | 51 | 150 | 0.0 | 3.0 | 0.00 | 0.01 | 0.00 | 73 | 1024.2 |
| 20260903090035 | 51 | 0 | 0.0 | 4.0 | 0.00 | 0.01 | 0.00 | 73 | 1024.3 |
| 20260903084537 | 0 | 0.0 | 0.0 | 0.00 | 0.01 | 0.00 | 1024.3 | ||
| 20260903083035 | 0 | 0.0 | 0.0 | 0.00 | 0.01 | 0.00 | 1024.3 | ||
| 20260903081534 | 0 | 0.0 | 0.0 | 0.00 | 0.01 | 0.00 | 1024.4 | ||
| 20260903080034 | 0 | 0.0 | 0.0 | 0.00 | 0.01 | 0.00 | 1024.4 | ||
| 20260903074536 | 0 | 0.0 | 0.0 | 0.00 | 0.01 | 0.00 | 1024.6 | ||
| 20260903073043 | 0 | 0.0 | 0.0 | 0.00 | 0.01 | 0.00 | 1024.7 | ||
| 20260903071534 | 0 | 0.0 | 0.0 | 0.00 | 0.01 | 0.00 | 1024.7 | ||
| 20260903070033 | 0 | 0.0 | 0.0 | 0.00 | 0.01 | 0.00 | 1025.0 | ||
| 20260903064534 | 0 | 0.0 | 0.0 | 0.00 | 0.01 | 0.00 | 1024.6 | ||
| 20260903063035 | 0 | 3.0 | 0.0 | 0.00 | 0.01 | 0.00 | 1024.5 | ||
| 20260903061535 | 55 | 42 | 1.0 | 4.0 | 0.00 | 0.01 | 0.00 | 72 | 1024.9 |
| 20260903060037 | 0 | 0.0 | 0.0 | 0.00 | 0.01 | 0.00 | 1025.2 | ||
| 20260903054534 | 0 | 0.0 | 0.0 | 0.00 | 0.01 | 0.01 | 1025.0 | ||
| 20260903053036 | 0 | 0.0 | 0.0 | 0.00 | 0.01 | 0.01 | 1024.9 | ||
| 20260903051537 | 0 | 0.0 | 0.0 | 0.00 | 0.01 | 0.01 | 1025.0 | ||
| 20260903050035 | 0 | 0.0 | 0.0 | 0.00 | 0.01 | 0.01 | 1025.2 | ||
| 20260903044536 | 54 | 75 | 3.0 | 5.0 | 0.00 | 0.01 | 0.01 | 76 | 1025.2 |
| 20260903043045 | 54 | 32 | 2.0 | 5.0 | 0.00 | 0.01 | 0.01 | 76 | 1025.2 |
| 20260903041537 | 54 | 55 | 2.0 | 6.0 | 0.00 | 0.01 | 0.01 | 73 | 1025.3 |
| 20260903040035 | 55 | 76 | 3.0 | 6.0 | 0.00 | 0.01 | 0.01 | 72 | 1025.1 |
| 20260903034534 | 57 | 116 | 1.0 | 4.0 | 0.00 | 0.01 | 0.01 | 69 | 1025.1 |
| 20260903033038 | 55 | 141 | 0.0 | 5.0 | 0.00 | 0.01 | 0.01 | 74 | 1025.0 |
| 20260903031544 | 56 | 106 | 1.0 | 4.0 | 0.00 | 0.01 | 0.01 | 75 | 1025.0 |
| 20260903030035 | 57 | 0 | 2.0 | 5.0 | 0.00 | 0.01 | 0.01 | 75 | 1024.8 |
| 20260903024533 | 57 | 135 | 0.0 | 3.0 | 0.00 | 0.01 | 0.01 | 76 | 1024.6 |
| 20260903023037 | 56 | 131 | 1.0 | 3.0 | 0.00 | 0.01 | 0.01 | 77 | 1024.4 |
| 20260903021534 | 55 | 47 | 2.0 | 4.0 | 0.00 | 0.01 | 0.01 | 77 | 1023.9 |
| 20260903020044 | 56 | 71 | 4.0 | 7.0 | 0.00 | 0.01 | 0.01 | 76 | 1023.6 |
| 20260903014535 | 57 | 64 | 2.0 | 4.0 | 0.00 | 0.01 | 0.01 | 74 | 1023.9 |
| 20260903013047 | 58 | 101 | 1.0 | 4.0 | 0.00 | 0.01 | 0.01 | 73 | 1024.2 |
| 20260903011537 | 59 | 100 | 2.0 | 7.0 | 0.00 | 0.01 | 0.01 | 71 | 1024.4 |
| 20260903010037 | 60 | 57 | 5.0 | 9.0 | 0.00 | 0.01 | 0.01 | 70 | 1024.5 |
| 20260903004536 | 60 | 117 | 7.0 | 10.0 | 0.00 | 0.01 | 0.01 | 69 | 1024.8 |
| 20260903003036 | 60 | 98 | 5.0 | 10.0 | 0.00 | 0.01 | 0.01 | 72 | 1024.9 |
| 20260903001535 | 0 | 2.0 | 0.0 | 0.00 | 0.01 | 0.01 | 1025.2 | ||
| 20260903000042 | 67 | 152 | 7.0 | 17.0 | 0.00 | 0.01 | 0.01 | 52 | 1025.2 |
| 20260902234536 | 70 | 267 | 6.0 | 11.0 | 0.00 | 0.01 | 0.01 | 47 | 1024.4 |
| 20260902233037 | 70 | 327 | 4.0 | 10.0 | 0.00 | 0.01 | 0.01 | 48 | 1024.3 |
| 20260902231539 | 69 | 283 | 7.0 | 13.0 | 0.00 | 0.01 | 0.01 | 49 | 1024.7 |
| 20260902230037 | 71 | 284 | 8.0 | 12.0 | 0.00 | 0.01 | 0.01 | 47 | 1024.7 |
| 20260902224538 | 70 | 265 | 6.0 | 10.0 | 0.00 | 0.01 | 0.01 | 46 | 1024.6 |
| 20260902223051 | 69 | 254 | 7.0 | 13.0 | 0.00 | 0.01 | 0.01 | 46 | 1025.0 |
| 20260902221540 | 71 | 196 | 2.0 | 9.0 | 0.00 | 0.01 | 0.01 | 43 | 1025.2 |
| 20260902220041 | 70 | 331 | 0.0 | 8.0 | 0.00 | 0.01 | 0.01 | 45 | 1025.3 |
| 20260902214536 | 67 | 59 | 2.0 | 6.0 | 0.01 | 0.01 | 0.01 | 53 | 1025.4 |
| 20260902213038 | 65 | 336 | 3.0 | 10.0 | 0.01 | 0.01 | 0.01 | 56 | 1025.7 |